User: anonymous   Login
Location: Cheching
(60.0667°N, 164.2167°W)
Time: 02:57:05
(UTC+00:00)
Language:

COSMOS 1408 DEB - Orbit

View from above orbital plane
View from above orbital plane
View from above satellite
View from above satellite

Ground track
Ground track

The orbit data is extracted from the following two-line orbital elements,

1 52066U 82092BUU 22343.35580981  .00018638  00000-0  13014-2 0  9990
2 52066  82.5318 117.5340 0209809 198.0005 161.3710 14.89066006 43062
Epoch (UTC): 09 December 2022 08:32:21
Eccentricity: 0.0209809
inclination: 82.5318°
perigee height: 454 km
apogee height: 747 km
right ascension of ascending node: 117.5340°
argument of perigee: 198.0005°
revolutions per day: 14.89066006
mean anomaly at epoch: 161.3710°
orbit number at epoch: 4306

The dashed part of the orbit path shows where the satellite is in the earth's shadow,  

DLR